Total_Precipitation_Accumulation
0.07 0.19 0.36 0.75 1.47 1.57 1.08 0.67 0.55 0.44 0.42 0.38 0.39 0.37 0.46 0.69 1.06 1.52 0.89 0.46 0.41 0.47 0.65 0.88 1.12 1.06 1.03 0.96 0.97 0.94 0.89 0.85 0.84 0.88 0.91 0.87 0.80 0.68 0.61 0.61 0.65 0.70 0.69 0.64 0.73 0.78 0.74 0.80 0.90
0.16 0.27 0.46 0.98 1.44 1.14 0.85 0.63 0.53 0.37 0.35 0.38 0.51 0.52 0.43 0.53 0.53 0.58 0.62 0.52 0.36 0.40 0.62 0.71 0.93 0.94 0.96 0.93 0.93 0.91 0.85 0.75 0.75 0.74 0.74 0.73 0.73 0.66 0.60 0.61 0.64 0.66 0.64 0.65 0.75 0.79 0.80 0.79 0.83
0.23 0.35 0.58 0.98 0.95 0.63 0.55 0.45 0.37 0.34 0.40 0.49 0.57 0.60 0.61 0.61 0.50 0.56 0.55 0.45 0.40 0.39 0.51 0.71 0.86 0.82 0.88 0.85 0.82 0.85 0.83 0.76 0.70 0.66 0.71 0.70 0.66 0.63 0.60 0.62 0.64 0.67 0.67 0.67 0.70 0.81 0.86 0.84 0.84
0.26 0.41 0.55 0.67 0.51 0.30 0.24 0.25 0.28 0.39 0.57 0.78 0.80 0.77 0.72 0.55 0.47 0.47 0.51 0.45 0.39 0.32 0.35 0.57 0.79 0.77 0.86 0.79 0.73 0.75 0.75 0.75 0.71 0.69 0.72 0.76 0.77 0.75 0.66 0.61 0.64 0.71 0.75 0.74 0.77 0.86 0.91 0.85 0.84
0.21 0.42 0.62 0.56 0.32 0.24 0.19 0.20 0.31 0.45 0.61 0.79 0.84 0.92 0.95 0.71 0.47 0.47 0.47 0.50 0.44 0.34 0.30 0.43 0.71 0.72 0.76 0.74 0.69 0.68 0.69 0.73 0.69 0.70 0.67 0.74 0.79 0.76 0.71 0.69 0.71 0.71 0.75 0.76 0.81 0.87 0.89 0.91 0.93
0.29 0.44 0.48 0.39 0.23 0.19 0.21 0.24 0.31 0.44 0.61 0.78 1.05 1.17 1.14 0.92 0.76 0.65 0.55 0.67 0.57 0.41 0.32 0.41 0.69 0.77 0.75 0.73 0.68 0.67 0.66 0.67 0.67 0.66 0.65 0.68 0.73 0.74 0.76 0.78 0.81 0.75 0.77 0.80 0.81 0.83 0.83 0.89 0.99
0.24 0.29 0.29 0.25 0.20 0.18 0.20 0.24 0.31 0.48 0.63 0.87 1.15 1.31 1.21 1.08 0.91 0.78 0.74 0.81 0.86 0.72 0.58 0.51 0.58 0.68 0.71 0.77 0.77 0.70 0.68 0.68 0.67 0.69 0.69 0.67 0.68 0.70 0.71 0.85 0.88 0.82 0.83 0.84 0.87 0.86 0.88 0.93 1.03
0.10 0.17 0.18 0.14 0.14 0.14 0.18 0.22 0.34 0.56 0.74 0.95 1.14 1.29 1.40 1.09 0.91 0.99 1.19 1.36 1.45 1.33 1.11 0.85 0.68 0.77 0.73 0.77 0.80 0.77 0.65 0.64 0.68 0.73 0.72 0.74 0.82 0.87 0.95 0.94 0.91 0.93 1.01 1.04 1.08 1.03 1.00 1.11 1.20
0.07 0.13 0.12 0.07 0.07 0.14 0.16 0.21 0.30 0.41 0.61 0.85 1.03 1.09 1.01 0.96 1.13 1.41 1.78 1.81 1.65 1.67 1.50 1.34 1.09 0.86 0.91 0.89 0.80 0.92 0.82 0.80 0.92 1.10 1.08 1.14 1.45 1.43 1.52 1.23 1.14 1.24 1.43 1.48 1.52 1.51 1.44 1.38 1.34
0.05 0.08 0.05 0.03 0.02 0.06 0.12 0.18 0.29 0.44 0.86 1.43 1.42 1.09 0.88 1.06 1.33 1.56 1.88 2.09 1.70 1.67 1.49 1.49 1.41 1.13 1.05 1.04 1.26 1.59 1.41 1.40 1.47 1.73 1.63 1.91 2.02 1.90 1.41 1.46 1.61 1.72 2.08 2.20 2.23 2.27 2.05 1.77 1.65
0.03 0.03 0.03 0.01 0.02 0.02 0.05 0.13 0.23 0.47 0.95 1.64 1.80 1.35 1.17 1.27 1.65 1.68 1.93 2.14 2.06 1.88 1.74 1.46 1.57 1.44 1.44 1.61 1.67 1.84 1.93 1.90 1.87 1.98 2.03 2.27 2.08 1.77 1.68 2.00 2.35 2.50 2.67 2.84 2.88 2.79 2.34 2.29 2.46
0.02 0.01 0.01 0.01 0.01 0.02 0.09 0.18 0.28 0.36 0.79 1.15 1.12 1.01 1.17 1.39 1.73 1.96 2.02 2.26 2.29 2.15 2.04 1.91 1.89 1.91 1.92 1.96 1.88 1.77 1.60 1.61 1.73 1.90 1.94 2.16 2.26 2.28 2.26 2.43 2.54 2.74 3.09 3.46 3.40 3.35 3.09 3.10 2.91
0.01 0.02 0.02 0.02 0.03 0.05 0.11 0.15 0.27 0.42 0.54 0.67 0.64 0.83 1.27 1.55 1.94 2.28 2.64 2.86 2.91 2.84 2.69 2.68 2.74 2.54 2.34 2.29 1.96 1.59 1.50 1.40 1.44 1.57 1.70 1.77 2.09 2.36 2.41 2.28 2.31 2.29 2.51 2.93 3.46 3.41 3.57 3.54 3.20
0.01 0.01 0.02 0.04 0.04 0.05 0.10 0.15 0.30 0.51 0.52 0.62 0.78 1.02 1.42 1.87 2.25 2.50 3.25 3.65 3.89 3.82 3.64 3.44 3.49 3.03 2.67 2.43 2.07 1.79 1.54 1.55 1.46 1.37 1.40 1.63 1.89 2.18 2.15 2.12 2.29 2.35 2.30 2.46 2.89 3.08 3.43 3.40 3.06
0.03 0.06 0.07 0.08 0.05 0.06 0.12 0.29 0.45 0.57 0.75 0.79 0.97 1.19 1.53 2.12 2.59 3.04 3.58 4.32 4.76 4.93 4.53 3.94 3.66 3.33 3.05 2.77 2.28 1.89 1.71 1.46 1.48 1.45 1.38 1.46 1.61 1.86 1.86 1.95 1.95 2.01 1.95 2.03 2.24 2.49 2.77 2.74 2.60
0.07 0.14 0.22 0.13 0.08 0.09 0.15 0.53 0.71 0.60 0.88 1.22 1.17 1.44 1.84 2.37 2.84 3.51 4.20 5.03 5.56 5.72 5.13 4.41 3.70 3.71 3.55 3.24 2.58 2.08 1.78 1.64 1.56 1.50 1.37 1.29 1.32 1.33 1.46 1.51 1.49 1.51 1.39 1.53 1.84 1.94 2.19 2.41 2.49
0.07 0.12 0.19 0.20 0.13 0.11 0.20 0.61 0.79 0.59 0.75 1.04 1.29 1.54 1.96 2.33 2.68 3.32 3.97 4.77 5.37 5.89 5.69 5.05 4.85 4.61 3.93 3.20 2.59 2.17 1.87 1.73 1.56 1.47 1.40 1.33 1.23 1.19 1.29 1.39 1.48 1.25 1.22 1.29 1.20 1.57 1.78 2.04 2.16
0.08 0.08 0.14 0.25 0.18 0.18 0.27 0.47 0.75 0.78 0.96 1.16 1.31 1.45 1.73 1.93 2.27 2.78 3.30 3.74 4.33 4.83 4.74 4.67 4.78 4.31 3.69 3.05 2.55 2.25 1.98 1.68 1.49 1.41 1.42 1.33 1.28 1.24 1.38 1.26 1.26 1.15 1.30 1.44 1.53 1.78 1.71 1.65 1.75
0.06 0.07 0.11 0.18 0.18 0.25 0.37 0.50 0.72 0.88 1.11 1.26 1.29 1.26 1.33 1.55 1.86 2.16 2.54 2.89 3.09 3.25 3.36 3.68 3.89 3.61 3.12 2.69 2.19 1.97 1.90 1.71 1.51 1.38 1.28 1.33 1.27 1.39 1.50 1.27 1.55 1.38 1.35 1.41 1.45 1.59 1.58 1.43 1.39
0.06 0.08 0.14 0.17 0.16 0.21 0.36 0.65 0.82 0.90 0.93 1.00 1.11 1.06 1.09 1.29 1.39 1.48 1.70 2.03 2.12 2.34 2.65 3.03 3.28 3.12 2.59 2.35 2.13 1.99 1.91 1.77 1.71 1.56 1.49 1.34 1.30 1.35 1.27 1.50 1.35 1.39 1.50 1.53 1.60 1.69 1.69 1.50 1.42
0.07 0.08 0.10 0.13 0.13 0.22 0.38 0.90 1.01 0.90 0.81 0.71 0.82 0.87 0.84 0.92 1.02 1.02 1.10 1.27 1.58 2.05 2.21 2.27 2.53 2.74 2.48 2.35 2.26 2.14 2.05 1.86 1.90 1.80 1.64 1.33 1.21 1.25 1.29 1.30 1.32 1.50 1.34 1.59 1.78 1.72 1.76 1.74 1.58
0.06 0.06 0.06 0.06 0.10 0.34 0.46 0.92 1.04 0.91 0.89 0.71 0.67 0.66 0.57 0.54 0.70 0.84 0.85 0.91 1.11 1.44 1.73 1.98 2.24 2.42 2.36 2.24 2.04 1.86 1.68 1.59 1.59 1.61 1.63 1.49 1.36 1.19 1.20 1.21 1.36 1.52 1.34 1.68 1.39 1.45 1.69 1.81 1.65
0.03 0.03 0.04 0.07 0.14 0.32 0.44 0.78 1.00 0.83 0.97 0.74 0.46 0.33 0.29 0.29 0.40 0.57 0.68 0.77 0.79 0.99 1.39 1.82 2.18 2.42 2.32 2.03 1.86 1.85 1.74 1.70 1.62 1.55 1.73 1.62 1.53 1.32 1.14 1.22 1.35 1.42 1.34 1.44 1.47 1.72 1.63 1.60 1.58
0.02 0.03 0.09 0.20 0.33 0.66 0.64 0.65 0.93 0.71 0.54 0.40 0.28 0.20 0.21 0.23 0.28 0.37 0.43 0.53 0.68 0.81 1.07 1.39 1.74 1.99 2.02 1.86 1.76 1.81 1.84 1.81 1.67 1.48 1.48 1.40 1.41 1.36 1.26 1.33 1.39 1.34 1.28 1.35 1.38 1.52 1.54 1.63 1.70
0.02 0.04 0.19 0.40 0.68 0.87 0.52 0.67 1.02 0.59 0.42 0.29 0.23 0.20 0.19 0.18 0.24 0.33 0.40 0.43 0.53 0.63 0.80 1.04 1.30 1.44 1.61 1.69 1.71 1.70 1.82 1.82 1.64 1.45 1.40 1.42 1.28 1.19 1.22 1.33 1.47 1.40 1.41 1.39 1.49 1.48 1.44 1.53 1.59
0.02 0.03 0.08 0.16 0.29 0.44 0.51 1.12 0.98 0.43 0.27 0.23 0.21 0.21 0.19 0.18 0.20 0.31 0.41 0.43 0.44 0.49 0.66 0.81 0.98 1.18 1.38 1.49 1.56 1.58 1.54 1.44 1.42 1.51 1.41 1.37 1.35 1.27 1.23 1.30 1.32 1.34 1.38 1.38 1.67 1.49 1.37 1.40 1.38
0.03 0.02 0.04 0.05 0.08 0.28 0.61 0.80 0.53 0.26 0.22 0.25 0.22 0.21 0.20 0.24 0.31 0.36 0.46 0.48 0.39 0.40 0.50 0.57 0.76 0.95 1.09 1.29 1.39 1.31 1.34 1.25 1.26 1.32 1.31 1.26 1.37 1.38 1.31 1.22 1.21 1.28 1.38 1.48 1.59 1.49 1.48 1.53 1.36
0.03 0.02 0.03 0.03 0.06 0.20 0.46 0.71 0.73 0.46 0.35 0.29 0.26 0.24 0.21 0.28 0.42 0.45 0.42 0.45 0.39 0.37 0.44 0.51 0.66 0.78 0.88 1.06 1.13 1.06 1.24 1.24 1.33 1.30 1.22 1.17 1.18 1.22 1.26 1.23 1.18 1.24 1.32 1.43 1.54 1.57 1.68 1.76 1.60
0.05 0.03 0.03 0.03 0.04 0.10 0.31 0.50 0.55 0.51 0.46 0.32 0.24 0.27 0.33 0.32 0.44 0.45 0.41 0.43 0.40 0.39 0.43 0.49 0.63 0.73 0.79 0.93 0.98 1.03 1.11 1.14 1.20 1.24 1.25 1.23 1.20 1.18 1.21 1.25 1.27 1.29 1.33 1.43 1.51 1.47 1.69 1.82 1.84
0.06 0.07 0.06 0.06 0.05 0.07 0.13 0.26 0.28 0.34 0.40 0.33 0.31 0.38 0.40 0.29 0.29 0.36 0.40 0.46 0.36 0.37 0.41 0.46 0.53 0.60 0.66 0.82 0.97 1.03 1.13 1.15 1.12 1.16 1.34 1.35 1.32 1.30 1.32 1.36 1.44 1.41 1.40 1.48 1.47 1.38 1.47 1.65 1.85